iso_date,epoch_date,Year,Hour,Min,DOY,POS_DOY,Lat,Lon,BP,Ts,Ta,has_bp,has_ts,has_ta,BuoyID,Buoy_Type,Buoy_Owner,Logistics,Hemisphere
2016-12-21T13:00:28Z,1482325229,2016,13,0,356.542,356.542,-48.9124,2.95548,983.5,-999.00,-999.0,yes,no,no,300025060005540,IMB,AWI-USIABP,unknown,South
2016-12-21T13:59:31Z,1482328771,2016,14,0,356.583,356.583,-49.01353,2.84234,983.1,-999.00,-999.0,yes,no,no,300025060005540,IMB,AWI-USIABP,unknown,South
2016-12-21T15:00:00Z,1482332400,2016,15,0,356.625,356.625,-49.0152,2.84962,983.1,-999.00,-999.0,yes,no,no,300025060005540,IMB,AWI-USIABP,unknown,South
2016-12-21T16:00:28Z,1482336029,2016,16,0,356.667,356.667,-49.00716,2.84277,982.7,-999.00,-999.0,yes,no,no,300025060005540,IMB,AWI-USIABP,unknown,South
2016-12-21T16:59:31Z,1482339571,2016,17,0,356.708,356.708,-49.01321,2.83629,982.6,-999.00,-999.0,yes,no,no,300025060005540,IMB,AWI-USIABP,unknown,South
2016-12-21T18:00:00Z,1482343200,2016,18,0,356.75,356.75,-49.01383,2.83732,982.5,-999.00,-999.0,yes,no,no,300025060005540,IMB,AWI-USIABP,unknown,South
2016-12-21T19:00:28Z,1482346829,2016,19,0,356.792,356.792,-49.01506,2.83818,982.5,-999.00,-999.0,yes,no,no,300025060005540,IMB,AWI-USIABP,unknown,South
2016-12-21T19:59:31Z,1482350371,2016,20,0,356.833,356.833,-49.01335,2.83825,982.4,-999.00,-999.0,yes,no,no,300025060005540,IMB,AWI-USIABP,unknown,South
2016-12-21T21:00:00Z,1482354000,2016,21,0,356.875,356.875,-49.01594,2.83482,982.7,-999.00,-999.0,yes,no,no,300025060005540,IMB,AWI-USIABP,unknown,South
2016-12-21T22:00:28Z,1482357629,2016,22,0,356.917,356.917,-49.15257,2.80328,982.5,-999.00,-999.0,yes,no,no,300025060005540,IMB,AWI-USIABP,unknown,South
2016-12-21T23:00:57Z,1482361258,2016,23,1,356.959,356.959,-49.34318,2.75769,982.0,-999.00,-999.0,yes,no,no,300025060005540,IMB,AWI-USIABP,unknown,South
2016-12-22T00:00:00Z,1482364800,2016,0,0,357.0,357.0,-49.53254,2.71243,981.8,-999.00,-999.0,yes,no,no,300025060005540,IMB,AWI-USIABP,unknown,South
2016-12-22T01:00:28Z,1482368429,2016,1,0,357.042,357.042,-49.72676,2.66692,981.7,-999.00,-999.0,yes,no,no,300025060005540,IMB,AWI-USIABP,unknown,South
2016-12-22T01:59:31Z,1482371971,2016,2,0,357.083,357.083,-49.92078,2.61894,981.1,-999.00,-999.0,yes,no,no,300025060005540,IMB,AWI-USIABP,unknown,South
2016-12-22T03:01:26Z,1482375686,2016,3,1,357.126,357.126,-50.11319,2.57207,981.1,-999.00,-999.0,yes,no,no,300025060005540,IMB,AWI-USIABP,unknown,South
2016-12-22T04:00:28Z,1482379229,2016,4,0,357.167,357.167,-50.29912,2.52714,981.4,-999.00,-999.0,yes,no,no,300025060005540,IMB,AWI-USIABP,unknown,South
2016-12-22T05:00:57Z,1482382858,2016,5,1,357.209,357.209,-50.49168,2.4794,981.9,-999.00,-999.0,yes,no,no,300025060005540,IMB,AWI-USIABP,unknown,South
2016-12-22T06:00:00Z,1482386400,2016,6,0,357.25,357.25,-50.67422,2.43457,982.6,-999.00,-999.0,yes,no,no,300025060005540,IMB,AWI-USIABP,unknown,South
2016-12-22T07:00:28Z,1482390029,2016,7,0,357.292,357.292,-50.86169,2.39351,983.5,-999.00,-999.0,yes,no,no,300025060005540,IMB,AWI-USIABP,unknown,South
2016-12-22T07:59:31Z,1482393571,2016,8,0,357.333,357.333,-51.04936,2.34156,984.1,-999.00,-999.0,yes,no,no,300025060005540,IMB,AWI-USIABP,unknown,South
2016-12-22T09:00:00Z,1482397200,2016,9,0,357.375,357.375,-51.23879,2.29436,985.6,-999.00,-999.0,yes,no,no,300025060005540,IMB,AWI-USIABP,unknown,South
2016-12-22T10:00:28Z,1482400829,2016,10,0,357.417,357.417,-51.42515,2.24732,986.1,-999.00,-999.0,yes,no,no,300025060005540,IMB,AWI-USIABP,unknown,South
2016-12-22T10:59:31Z,1482404371,2016,11,0,357.458,357.458,-51.61035,2.20133,987.2,-999.00,-999.0,yes,no,no,300025060005540,IMB,AWI-USIABP,unknown,South
2016-12-22T12:00:00Z,1482408000,2016,12,0,357.5,357.5,-51.80217,2.15248,987.9,-999.00,-999.0,yes,no,no,300025060005540,IMB,AWI-USIABP,unknown,South
2016-12-22T13:00:28Z,1482411629,2016,13,0,357.542,357.542,-51.99237,2.10173,989.4,-999.00,-999.0,yes,no,no,300025060005540,IMB,AWI-USIABP,unknown,South
2016-12-22T13:59:31Z,1482415171,2016,14,0,357.583,357.583,-51.99349,2.09771,990.8,-999.00,-999.0,yes,no,no,300025060005540,IMB,AWI-USIABP,unknown,South
2016-12-22T15:00:00Z,1482418800,2016,15,0,357.625,357.625,-51.99148,2.09619,991.9,-999.00,-999.0,yes,no,no,300025060005540,IMB,AWI-USIABP,unknown,South
2016-12-22T16:00:28Z,1482422429,2016,16,0,357.667,357.667,-51.97288,2.09669,993.8,-999.00,-999.0,yes,no,no,300025060005540,IMB,AWI-USIABP,unknown,South
2016-12-22T17:00:57Z,1482426058,2016,17,1,357.709,357.709,-52.07574,2.08294,994.7,-999.00,-999.0,yes,no,no,300025060005540,IMB,AWI-USIABP,unknown,South
2016-12-22T18:00:00Z,1482429600,2016,18,0,357.75,357.75,-52.25788,2.03626,997.1,-999.00,-999.0,yes,no,no,300025060005540,IMB,AWI-USIABP,unknown,South
2016-12-22T19:00:28Z,1482433229,2016,19,0,357.792,357.792,-52.446,1.98796,998.7,-999.00,-999.0,yes,no,no,300025060005540,IMB,AWI-USIABP,unknown,South
2016-12-22T19:59:31Z,1482436771,2016,20,0,357.833,357.833,-52.63221,1.94623,1000.7,-999.00,-999.0,yes,no,no,300025060005540,IMB,AWI-USIABP,unknown,South
2016-12-22T21:00:00Z,1482440400,2016,21,0,357.875,357.875,-52.82076,1.89184,1002.3,-999.00,-999.0,yes,no,no,300025060005540,IMB,AWI-USIABP,unknown,South
2016-12-22T22:00:28Z,1482444029,2016,22,0,357.917,357.917,-53.01198,1.84182,1003.3,-999.00,-999.0,yes,no,no,300025060005540,IMB,AWI-USIABP,unknown,South
2016-12-22T22:59:31Z,1482447571,2016,23,0,357.958,357.958,-53.20226,1.79401,1003.9,-999.00,-999.0,yes,no,no,300025060005540,IMB,AWI-USIABP,unknown,South
2016-12-23T00:00:00Z,1482451200,2016,0,0,358.0,358.0,-53.39676,1.74165,1004.6,-999.00,-999.0,yes,no,no,300025060005540,IMB,AWI-USIABP,unknown,South
2016-12-23T01:00:28Z,1482454829,2016,1,0,358.042,358.042,-53.58906,1.69049,1004.6,-999.00,-999.0,yes,no,no,300025060005540,IMB,AWI-USIABP,unknown,South
2016-12-23T01:59:31Z,1482458371,2016,2,0,358.083,358.083,-53.7764,1.64156,1004.9,-999.00,-999.0,yes,no,no,300025060005540,IMB,AWI-USIABP,unknown,South
2016-12-23T03:00:00Z,1482462000,2016,3,0,358.125,358.125,-53.97246,1.58908,1005.0,-999.00,-999.0,yes,no,no,300025060005540,IMB,AWI-USIABP,unknown,South
2016-12-23T04:00:28Z,1482465629,2016,4,0,358.167,358.167,-54.17001,1.5367,1004.8,-999.00,-999.0,yes,no,no,300025060005540,IMB,AWI-USIABP,unknown,South
2016-12-23T04:59:31Z,1482469171,2016,5,0,358.208,358.208,-54.36399,1.48449,1004.9,-999.00,-999.0,yes,no,no,300025060005540,IMB,AWI-USIABP,unknown,South
2016-12-23T06:00:00Z,1482472800,2016,6,0,358.25,358.25,-54.55762,1.43236,1004.3,-999.00,-999.0,yes,no,no,300025060005540,IMB,AWI-USIABP,unknown,South
2016-12-23T07:00:28Z,1482476429,2016,7,0,358.292,358.292,-54.74842,1.38126,1004.4,-999.00,-999.0,yes,no,no,300025060005540,IMB,AWI-USIABP,unknown,South
2016-12-23T07:59:31Z,1482479971,2016,8,0,358.333,358.333,-54.94307,1.3277,1004.3,-999.00,-999.0,yes,no,no,300025060005540,IMB,AWI-USIABP,unknown,South
2016-12-23T09:00:00Z,1482483600,2016,9,0,358.375,358.375,-55.13296,1.2782,1003.7,-999.00,-999.0,yes,no,no,300025060005540,IMB,AWI-USIABP,unknown,South
2016-12-23T10:00:28Z,1482487229,2016,10,0,358.417,358.417,-55.32569,1.2256,1003.5,-999.00,-999.0,yes,no,no,300025060005540,IMB,AWI-USIABP,unknown,South
2016-12-23T10:59:31Z,1482490771,2016,11,0,358.458,358.458,-55.51144,1.17085,1003.0,-999.00,-999.0,yes,no,no,300025060005540,IMB,AWI-USIABP,unknown,South
2016-12-23T12:00:00Z,1482494400,2016,12,0,358.5,358.5,-55.70708,1.11731,1002.3,-999.00,-999.0,yes,no,no,300025060005540,IMB,AWI-USIABP,unknown,South
2016-12-23T13:00:28Z,1482498029,2016,13,0,358.542,358.542,-55.87633,1.05551,1002.0,-999.00,-999.0,yes,no,no,300025060005540,IMB,AWI-USIABP,unknown,South
2016-12-23T13:59:31Z,1482501571,2016,14,0,358.583,358.583,-55.87705,1.05523,1001.7,-999.00,-999.0,yes,no,no,300025060005540,IMB,AWI-USIABP,unknown,South
2016-12-23T15:00:00Z,1482505200,2016,15,0,358.625,358.625,-55.8672,1.02771,1001.4,-999.00,-999.0,yes,no,no,300025060005540,IMB,AWI-USIABP,unknown,South
2016-12-23T16:00:28Z,1482508829,2016,16,0,358.667,358.667,-55.99246,1.03474,1000.9,-999.00,-999.0,yes,no,no,300025060005540,IMB,AWI-USIABP,unknown,South
2016-12-23T16:59:31Z,1482512371,2016,17,0,358.708,358.708,-56.19197,0.97766,999.4,-999.00,-999.0,yes,no,no,300025060005540,IMB,AWI-USIABP,unknown,South
2016-12-23T18:00:00Z,1482516000,2016,18,0,358.75,358.75,-56.38992,0.91591,997.7,-999.00,-999.0,yes,no,no,300025060005540,IMB,AWI-USIABP,unknown,South
2016-12-23T19:00:28Z,1482519629,2016,19,0,358.792,358.792,-56.58962,0.85335,996.5,-999.00,-999.0,yes,no,no,300025060005540,IMB,AWI-USIABP,unknown,South
2016-12-23T19:59:31Z,1482523171,2016,20,0,358.833,358.833,-56.79022,0.79327,994.7,-999.00,-999.0,yes,no,no,300025060005540,IMB,AWI-USIABP,unknown,South
2016-12-23T21:00:00Z,1482526800,2016,21,0,358.875,358.875,-56.98714,0.7283,993.4,-999.00,-999.0,yes,no,no,300025060005540,IMB,AWI-USIABP,unknown,South
2016-12-23T22:00:28Z,1482530429,2016,22,0,358.917,358.917,-57.18592,0.66177,991.4,-999.00,-999.0,yes,no,no,300025060005540,IMB,AWI-USIABP,unknown,South
2016-12-23T22:59:31Z,1482533971,2016,23,0,358.958,358.958,-57.38484,0.60055,989.6,-999.00,-999.0,yes,no,no,300025060005540,IMB,AWI-USIABP,unknown,South
2016-12-24T00:00:00Z,1482537600,2016,0,0,359.0,359.0,-57.58507,0.53051,987.8,-999.00,-999.0,yes,no,no,300025060005540,IMB,AWI-USIABP,unknown,South
2016-12-24T01:00:28Z,1482541229,2016,1,0,359.042,359.042,-57.78835,0.47342,986.1,-999.00,-999.0,yes,no,no,300025060005540,IMB,AWI-USIABP,unknown,South
2016-12-24T02:00:57Z,1482544858,2016,2,1,359.084,359.084,-57.98946,0.39636,984.4,-999.00,-999.0,yes,no,no,300025060005540,IMB,AWI-USIABP,unknown,South
2016-12-24T03:00:00Z,1482548400,2016,3,0,359.125,359.125,-58.18732,0.34487,983.3,-999.00,-999.0,yes,no,no,300025060005540,IMB,AWI-USIABP,unknown,South
2016-12-24T04:00:28Z,1482552029,2016,4,0,359.167,359.167,-58.39054,0.2954,983.9,-999.00,-999.0,yes,no,no,300025060005540,IMB,AWI-USIABP,unknown,South
2016-12-24T04:59:31Z,1482555571,2016,5,0,359.208,359.208,-58.59992,0.22884,984.0,-999.00,-999.0,yes,no,no,300025060005540,IMB,AWI-USIABP,unknown,South
2016-12-24T06:00:00Z,1482559200,2016,6,0,359.25,359.25,-58.81042,0.16345,984.0,-999.00,-999.0,yes,no,no,300025060005540,IMB,AWI-USIABP,unknown,South
2016-12-24T07:00:28Z,1482562829,2016,7,0,359.292,359.292,-59.02862,0.07438,984.8,-999.00,-999.0,yes,no,no,300025060005540,IMB,AWI-USIABP,unknown,South
2016-12-24T07:59:31Z,1482566371,2016,8,0,359.333,359.333,-59.04554,0.09134,985.5,-999.00,-999.0,yes,no,no,300025060005540,IMB,AWI-USIABP,unknown,South
2016-12-24T09:00:00Z,1482570000,2016,9,0,359.375,359.375,-59.04745,0.08206,985.7,-999.00,-999.0,yes,no,no,300025060005540,IMB,AWI-USIABP,unknown,South
2016-12-24T10:00:28Z,1482573629,2016,10,0,359.417,359.417,-59.05047,0.07831,986.0,-999.00,-999.0,yes,no,no,300025060005540,IMB,AWI-USIABP,unknown,South
2016-12-24T10:59:31Z,1482577171,2016,11,0,359.458,359.458,-59.04994,0.07939,986.4,-999.00,-999.0,yes,no,no,300025060005540,IMB,AWI-USIABP,unknown,South
2016-12-24T12:00:00Z,1482580800,2016,12,0,359.5,359.5,-59.04928,0.07695,986.7,-999.00,-999.0,yes,no,no,300025060005540,IMB,AWI-USIABP,unknown,South
2016-12-24T13:00:28Z,1482584429,2016,13,0,359.542,359.542,-59.05597,0.12636,987.3,-999.00,-999.0,yes,no,no,300025060005540,IMB,AWI-USIABP,unknown,South
2016-12-24T13:59:31Z,1482587971,2016,14,0,359.583,359.583,-59.06105,0.15552,987.8,-999.00,-999.0,yes,no,no,300025060005540,IMB,AWI-USIABP,unknown,South
2016-12-24T15:00:00Z,1482591600,2016,15,0,359.625,359.625,-59.04912,0.10575,987.9,-999.00,-999.0,yes,no,no,300025060005540,IMB,AWI-USIABP,unknown,South
2016-12-24T16:00:28Z,1482595229,2016,16,0,359.667,359.667,-59.0516,0.116,987.9,-999.00,-999.0,yes,no,no,300025060005540,IMB,AWI-USIABP,unknown,South
2016-12-24T16:59:31Z,1482598771,2016,17,0,359.708,359.708,-59.06245,0.08193,988.2,-999.00,-999.0,yes,no,no,300025060005540,IMB,AWI-USIABP,unknown,South
2016-12-24T18:00:00Z,1482602400,2016,18,0,359.75,359.75,-59.16588,0.08716,988.0,-999.00,-999.0,yes,no,no,300025060005540,IMB,AWI-USIABP,unknown,South
2016-12-24T19:00:28Z,1482606029,2016,19,0,359.792,359.792,-59.32009,0.08406,987.5,-999.00,-999.0,yes,no,no,300025060005540,IMB,AWI-USIABP,unknown,South
2016-12-24T19:59:31Z,1482609571,2016,20,0,359.833,359.833,-59.464,0.08065,987.3,-999.00,-999.0,yes,no,no,300025060005540,IMB,AWI-USIABP,unknown,South
2016-12-24T21:00:00Z,1482613200,2016,21,0,359.875,359.875,-59.59016,0.08049,986.9,-999.00,-999.0,yes,no,no,300025060005540,IMB,AWI-USIABP,unknown,South
2016-12-24T22:00:28Z,1482616829,2016,22,0,359.917,359.917,-59.71801,0.07797,986.7,-999.00,-999.0,yes,no,no,300025060005540,IMB,AWI-USIABP,unknown,South
2016-12-24T22:59:31Z,1482620371,2016,23,0,359.958,359.958,-59.84773,0.07531,986.4,-999.00,-999.0,yes,no,no,300025060005540,IMB,AWI-USIABP,unknown,South
2016-12-25T00:00:00Z,1482624000,2016,0,0,360.0,360.0,-59.97689,0.06742,985.7,-999.00,-999.0,yes,no,no,300025060005540,IMB,AWI-USIABP,unknown,South
2016-12-25T01:00:28Z,1482627629,2016,1,1,360.042,360.042,-60.11215,0.06288,985.3,-999.00,-999.0,yes,no,no,300025060005540,IMB,AWI-USIABP,unknown,South
2016-12-25T01:59:31Z,1482631171,2016,2,0,360.083,360.083,-60.24022,0.03936,984.8,-999.00,-999.0,yes,no,no,300025060005540,IMB,AWI-USIABP,unknown,South
2016-12-25T03:01:26Z,1482634886,2016,3,1,360.126,360.126,-60.37694,0.02685,984.1,-999.00,-999.0,yes,no,no,300025060005540,IMB,AWI-USIABP,unknown,South
2016-12-25T04:00:28Z,1482638429,2016,4,0,360.167,360.167,-60.50567,0.02885,983.8,-999.00,-999.0,yes,no,no,300025060005540,IMB,AWI-USIABP,unknown,South
2016-12-25T04:59:31Z,1482641971,2016,5,0,360.208,360.208,-60.63585,0.02618,983.4,-999.00,-999.0,yes,no,no,300025060005540,IMB,AWI-USIABP,unknown,South
2016-12-25T06:01:26Z,1482645686,2016,6,1,360.251,360.251,-60.77165,0.017,982.9,-999.00,-999.0,yes,no,no,300025060005540,IMB,AWI-USIABP,unknown,South
2016-12-25T07:01:55Z,1482649315,2016,7,2,360.293,360.293,-60.91052,0.00646,982.6,-999.00,-999.0,yes,no,no,300025060005540,IMB,AWI-USIABP,unknown,South
2016-12-25T07:59:31Z,1482652771,2016,8,0,360.333,360.333,-61.00023,-0.00267,982.3,-999.00,-999.0,yes,no,no,300025060005540,IMB,AWI-USIABP,unknown,South
2016-12-25T09:00:00Z,1482656400,2016,9,0,360.375,360.375,-61.0005,-0.00304,982.0,-999.00,-999.0,yes,no,no,300025060005540,IMB,AWI-USIABP,unknown,South
2016-12-25T10:00:28Z,1482660029,2016,10,1,360.417,360.417,-61.00064,-3e-05,981.7,-999.00,-999.0,yes,no,no,300025060005540,IMB,AWI-USIABP,unknown,South
2016-12-25T10:59:31Z,1482663571,2016,11,0,360.458,360.458,-61.00087,0.00685,981.0,-999.00,-999.0,yes,no,no,300025060005540,IMB,AWI-USIABP,unknown,South
2016-12-25T12:00:00Z,1482667200,2016,12,0,360.5,360.5,-60.99957,0.00021,980.4,-999.00,-999.0,yes,no,no,300025060005540,IMB,AWI-USIABP,unknown,South
2016-12-25T13:00:28Z,1482670829,2016,13,0,360.542,360.542,-60.9805,0.01442,979.9,-999.00,-999.0,yes,no,no,300025060005540,IMB,AWI-USIABP,unknown,South
2016-12-25T13:59:31Z,1482674371,2016,14,0,360.583,360.583,-60.99308,0.02886,979.7,-999.00,-999.0,yes,no,no,300025060005540,IMB,AWI-USIABP,unknown,South
2016-12-25T15:00:00Z,1482678000,2016,15,0,360.625,360.625,-61.18223,0.00801,979.2,-999.00,-999.0,yes,no,no,300025060005540,IMB,AWI-USIABP,unknown,South
2016-12-25T16:00:28Z,1482681629,2016,16,0,360.667,360.667,-61.36893,-0.00107,978.9,-999.00,-999.0,yes,no,no,300025060005540,IMB,AWI-USIABP,unknown,South
2016-12-25T16:59:31Z,1482685171,2016,17,0,360.708,360.708,-61.55771,-0.00039,978.6,-999.00,-999.0,yes,no,no,300025060005540,IMB,AWI-USIABP,unknown,South
2016-12-25T18:00:00Z,1482688800,2016,18,0,360.75,360.75,-61.74937,-0.00075,978.6,-999.00,-999.0,yes,no,no,300025060005540,IMB,AWI-USIABP,unknown,South
2016-12-25T19:00:28Z,1482692429,2016,19,0,360.792,360.792,-61.93837,-0.00935,978.6,-999.00,-999.0,yes,no,no,300025060005540,IMB,AWI-USIABP,unknown,South
2016-12-25T19:59:31Z,1482695971,2016,20,0,360.833,360.833,-62.10878,-0.00255,978.6,-999.00,-999.0,yes,no,no,300025060005540,IMB,AWI-USIABP,unknown,South
2016-12-25T21:00:00Z,1482699600,2016,21,0,360.875,360.875,-62.27703,-0.00111,978.5,-999.00,-999.0,yes,no,no,300025060005540,IMB,AWI-USIABP,unknown,South
2016-12-25T22:00:28Z,1482703229,2016,22,0,360.917,360.917,-62.44192,-0.002,978.8,-999.00,-999.0,yes,no,no,300025060005540,IMB,AWI-USIABP,unknown,South
2016-12-25T22:59:31Z,1482706771,2016,23,0,360.958,360.958,-62.62379,-0.00142,978.8,-999.00,-999.0,yes,no,no,300025060005540,IMB,AWI-USIABP,unknown,South
2016-12-26T00:00:00Z,1482710400,2016,0,0,361.0,361.0,-62.79453,0.00171,978.8,-999.00,-999.0,yes,no,no,300025060005540,IMB,AWI-USIABP,unknown,South
2016-12-26T01:00:28Z,1482714029,2016,1,0,361.042,361.042,-62.95795,0.01137,978.7,-999.00,-999.0,yes,no,no,300025060005540,IMB,AWI-USIABP,unknown,South
2016-12-26T01:59:31Z,1482717571,2016,2,0,361.083,361.083,-63.12118,0.00184,978.6,-999.00,-999.0,yes,no,no,300025060005540,IMB,AWI-USIABP,unknown,South
2016-12-26T03:00:00Z,1482721200,2016,3,0,361.125,361.125,-63.28955,0.00281,978.6,-999.00,-999.0,yes,no,no,300025060005540,IMB,AWI-USIABP,unknown,South
2016-12-26T04:00:28Z,1482724829,2016,4,1,361.167,361.167,-63.47038,0.01162,978.9,-999.00,-999.0,yes,no,no,300025060005540,IMB,AWI-USIABP,unknown,South
2016-12-26T05:00:57Z,1482728458,2016,5,1,361.209,361.209,-63.64694,0.00232,979.2,-999.00,-999.0,yes,no,no,300025060005540,IMB,AWI-USIABP,unknown,South
2016-12-26T06:00:00Z,1482732000,2016,6,0,361.25,361.25,-63.82126,0.00342,979.6,-999.00,-999.0,yes,no,no,300025060005540,IMB,AWI-USIABP,unknown,South
2016-12-26T07:00:28Z,1482735629,2016,7,0,361.292,361.292,-63.91805,-0.01024,979.2,-999.00,-999.0,yes,no,no,300025060005540,IMB,AWI-USIABP,unknown,South
2016-12-26T07:59:31Z,1482739171,2016,8,0,361.333,361.333,-63.91971,-0.00505,979.0,-999.00,-999.0,yes,no,no,300025060005540,IMB,AWI-USIABP,unknown,South
2016-12-26T09:00:00Z,1482742800,2016,9,0,361.375,361.375,-63.91681,-0.00087,979.0,-999.00,-999.0,yes,no,no,300025060005540,IMB,AWI-USIABP,unknown,South
2016-12-26T10:00:28Z,1482746429,2016,10,0,361.417,361.417,-64.00863,-0.00964,978.9,-999.00,-999.0,yes,no,no,300025060005540,IMB,AWI-USIABP,unknown,South
2016-12-26T10:59:31Z,1482749971,2016,11,0,361.458,361.458,-64.01005,-0.01062,979.0,-999.00,-999.0,yes,no,no,300025060005540,IMB,AWI-USIABP,unknown,South
2016-12-26T12:00:00Z,1482753600,2016,12,0,361.5,361.5,-64.01325,-0.01821,978.7,-999.00,-999.0,yes,no,no,300025060005540,IMB,AWI-USIABP,unknown,South
2016-12-26T13:00:28Z,1482757229,2016,13,0,361.542,361.542,-64.01238,-0.03832,978.9,-999.00,-999.0,yes,no,no,300025060005540,IMB,AWI-USIABP,unknown,South
2016-12-26T13:59:31Z,1482760771,2016,14,0,361.583,361.583,-64.0133,-0.034,978.8,-999.00,-999.0,yes,no,no,300025060005540,IMB,AWI-USIABP,unknown,South
2016-12-26T15:00:00Z,1482764400,2016,15,0,361.625,361.625,-64.02766,-0.13849,978.8,-999.00,-999.0,yes,no,no,300025060005540,IMB,AWI-USIABP,unknown,South
2016-12-26T16:00:28Z,1482768029,2016,16,0,361.667,361.667,-64.02305,-0.11829,979.1,-999.00,-999.0,yes,no,no,300025060005540,IMB,AWI-USIABP,unknown,South
2016-12-26T17:00:57Z,1482771658,2016,17,1,361.709,361.709,-64.01102,-0.04097,978.9,-999.00,-999.0,yes,no,no,300025060005540,IMB,AWI-USIABP,unknown,South
2016-12-26T18:00:00Z,1482775200,2016,18,0,361.75,361.75,-64.00505,-0.00135,978.8,-999.00,-999.0,yes,no,no,300025060005540,IMB,AWI-USIABP,unknown,South
2016-12-26T19:00:28Z,1482778829,2016,19,0,361.792,361.792,-63.99443,0.06124,978.8,-999.00,-999.0,yes,no,no,300025060005540,IMB,AWI-USIABP,unknown,South
2016-12-26T19:59:31Z,1482782371,2016,20,0,361.833,361.833,-63.99651,0.06242,979.3,-999.00,-999.0,yes,no,no,300025060005540,IMB,AWI-USIABP,unknown,South
2016-12-26T21:00:00Z,1482786000,2016,21,0,361.875,361.875,-63.99641,0.06405,979.2,-999.00,-999.0,yes,no,no,300025060005540,IMB,AWI-USIABP,unknown,South
2016-12-26T22:00:28Z,1482789629,2016,22,0,361.917,361.917,-63.99869,0.06574,979.3,-999.00,-999.0,yes,no,no,300025060005540,IMB,AWI-USIABP,unknown,South
2016-12-26T23:02:24Z,1482793344,2016,23,2,361.96,361.96,-64.07225,0.05394,980.1,-999.00,-999.0,yes,no,no,300025060005540,IMB,AWI-USIABP,unknown,South
2016-12-27T00:00:00Z,1482796800,2016,0,0,362.0,362.0,-64.24955,0.00323,980.9,-999.00,-999.0,yes,no,no,300025060005540,IMB,AWI-USIABP,unknown,South
2016-12-27T01:00:28Z,1482800429,2016,1,0,362.042,362.042,-64.43669,0.00845,981.4,-999.00,-999.0,yes,no,no,300025060005540,IMB,AWI-USIABP,unknown,South
2016-12-27T01:59:31Z,1482803971,2016,2,0,362.083,362.083,-64.62532,0.01284,981.8,-999.00,-999.0,yes,no,no,300025060005540,IMB,AWI-USIABP,unknown,South
2016-12-27T03:01:26Z,1482807686,2016,3,2,362.126,362.126,-64.81924,0.00303,982.1,-999.00,-999.0,yes,no,no,300025060005540,IMB,AWI-USIABP,unknown,South
2016-12-27T04:00:28Z,1482811229,2016,4,1,362.167,362.167,-64.99959,0.01349,982.3,-999.00,-999.0,yes,no,no,300025060005540,IMB,AWI-USIABP,unknown,South
2016-12-27T04:59:31Z,1482814771,2016,5,0,362.208,362.208,-65.00701,0.0138,982.5,-999.00,-999.0,yes,no,no,300025060005540,IMB,AWI-USIABP,unknown,South
2016-12-27T06:00:00Z,1482818400,2016,6,0,362.25,362.25,-65.00183,0.032,982.6,-999.00,-999.0,yes,no,no,300025060005540,IMB,AWI-USIABP,unknown,South
2016-12-27T07:00:28Z,1482822029,2016,7,1,362.292,362.292,-65.0016,0.03452,983.0,-999.00,-999.0,yes,no,no,300025060005540,IMB,AWI-USIABP,unknown,South
2016-12-27T08:03:50Z,1482825830,2016,8,4,362.336,362.336,-65.00301,0.03537,983.2,-999.00,-999.0,yes,no,no,300025060005540,IMB,AWI-USIABP,unknown,South
2016-12-27T09:01:26Z,1482829286,2016,9,1,362.376,362.376,-65.17031,0.01984,983.7,-999.00,-999.0,yes,no,no,300025060005540,IMB,AWI-USIABP,unknown,South
2016-12-27T10:00:28Z,1482832829,2016,10,0,362.417,362.417,-65.35156,0.01459,983.8,-999.00,-999.0,yes,no,no,300025060005540,IMB,AWI-USIABP,unknown,South
2016-12-27T10:59:31Z,1482836371,2016,11,0,362.458,362.458,-65.53295,0.0117,984.0,-999.00,-999.0,yes,no,no,300025060005540,IMB,AWI-USIABP,unknown,South
2016-12-27T12:00:00Z,1482840000,2016,12,0,362.5,362.5,-65.72148,0.0081,984.3,-999.00,-999.0,yes,no,no,300025060005540,IMB,AWI-USIABP,unknown,South
2016-12-27T13:00:28Z,1482843629,2016,13,0,362.542,362.542,-65.90845,-0.00221,984.2,-999.00,-999.0,yes,no,no,300025060005540,IMB,AWI-USIABP,unknown,South
2016-12-27T13:59:31Z,1482847171,2016,14,0,362.583,362.583,-66.00137,0.00193,984.1,-999.00,-999.0,yes,no,no,300025060005540,IMB,AWI-USIABP,unknown,South
2016-12-27T15:00:00Z,1482850800,2016,15,0,362.625,362.625,-66.00141,0.00356,983.7,-999.00,-999.0,yes,no,no,300025060005540,IMB,AWI-USIABP,unknown,South
2016-12-27T16:00:28Z,1482854429,2016,16,1,362.667,362.667,-66.00454,0.00181,983.6,-999.00,-999.0,yes,no,no,300025060005540,IMB,AWI-USIABP,unknown,South
2016-12-27T16:59:31Z,1482857971,2016,17,0,362.708,362.708,-66.01377,0.01601,983.3,-999.00,-999.0,yes,no,no,300025060005540,IMB,AWI-USIABP,unknown,South
2016-12-27T18:00:00Z,1482861600,2016,18,0,362.75,362.75,-66.19722,-0.00126,983.1,-999.00,-999.0,yes,no,no,300025060005540,IMB,AWI-USIABP,unknown,South
2016-12-27T19:00:28Z,1482865229,2016,19,0,362.792,362.792,-66.38062,-0.00052,982.9,-999.00,-999.0,yes,no,no,300025060005540,IMB,AWI-USIABP,unknown,South
2016-12-27T19:59:31Z,1482868771,2016,20,0,362.833,362.833,-66.56602,-0.00052,982.8,-999.00,-999.0,yes,no,no,300025060005540,IMB,AWI-USIABP,unknown,South
2016-12-27T21:00:00Z,1482872400,2016,21,0,362.875,362.875,-66.75571,0.00019,982.3,-999.00,-999.0,yes,no,no,300025060005540,IMB,AWI-USIABP,unknown,South
2016-12-27T22:00:28Z,1482876029,2016,22,0,362.917,362.917,-66.94177,-0.00021,982.3,-999.00,-999.0,yes,no,no,300025060005540,IMB,AWI-USIABP,unknown,South
2016-12-27T22:59:31Z,1482879571,2016,23,0,362.958,362.958,-67.00076,0.00252,982.1,-999.00,-999.0,yes,no,no,300025060005540,IMB,AWI-USIABP,unknown,South
2016-12-28T00:00:00Z,1482883200,2016,0,0,363.0,363.0,-67.00186,0.00297,981.9,-999.00,-999.0,yes,no,no,300025060005540,IMB,AWI-USIABP,unknown,South
2016-12-28T01:03:21Z,1482887002,2016,1,4,363.044,363.044,-67.00121,0.00788,981.1,-999.00,-999.0,yes,no,no,300025060005540,IMB,AWI-USIABP,unknown,South